Donnes mto: Actuelle lundi, 19/02/2018 09:05
Date Horaire Temp. E. Hum. E. P.atmo. Pluie Vent Direction Direction Ensoleilleme Ev.Tr. UV Solaire P. de rose Temp au vent Rafales
19/02/2018 09:05 0,6 C 95 % 1019,3 hPa 0,0 mm 0,0 km/h (0 Bft) S-SE 157 0 min 0,000 mm 0,0 UV-I 48 W/m -0,1 C 0,6 C 0,0 km/h (0 Bft)
19/02/2018 09:00 0,6 C 95 % 1019,3 hPa 0,0 mm 0,3 km/h (0 Bft) S-SE 157 0 min 0,000 mm 0,0 UV-I 54 W/m -0,1 C 0,6 C 4,8 km/h (1 Bft)
19/02/2018 08:55 0,4 C 95 % 1019,1 hPa 0,0 mm 0,0 km/h (0 Bft) E-NE 58 0 min 0,000 mm 0,0 UV-I 45 W/m -0,3 C 0,4 C 0,0 km/h (0 Bft)
19/02/2018 08:50 0,4 C 95 % 1019,2 hPa 0,0 mm 0,0 km/h (0 Bft) E-NE 57 0 min 0,000 mm 0,0 UV-I 32 W/m -0,3 C 0,4 C 0,0 km/h (0 Bft)
19/02/2018 08:45 0,4 C 95 % 1019,3 hPa 0,0 mm 0,0 km/h (0 Bft) E-NE 57 0 min 0,000 mm 0,0 UV-I 30 W/m -0,3 C 0,4 C 0,0 km/h (0 Bft)
19/02/2018 08:40 0,4 C 95 % 1019,2 hPa 0,0 mm 0,0 km/h (0 Bft) E 86 0 min 0,000 mm 0,0 UV-I 26 W/m -0,3 C 0,4 C 0,0 km/h (0 Bft)
19/02/2018 08:35 0,3 C 95 % 1019,3 hPa 0,0 mm 0,0 km/h (0 Bft) E 86 0 min 0,000 mm 0,0 UV-I 23 W/m -0,4 C 0,3 C 1,6 km/h (1 Bft)
19/02/2018 08:30 0,3 C 95 % 1019,4 hPa 0,0 mm 0,0 km/h (0 Bft) E 90 0 min 0,000 mm 0,0 UV-I 21 W/m -0,4 C 0,3 C 0,0 km/h (0 Bft)
19/02/2018 08:25 0,3 C 95 % 1019,4 hPa 0,0 mm 1,1 km/h (1 Bft) E 90 0 min 0,000 mm 0,0 UV-I 19 W/m -0,4 C 0,3 C 4,8 km/h (1 Bft)
19/02/2018 08:20 0,3 C 95 % 1019,3 hPa 0,0 mm 1,4 km/h (1 Bft) E 87 0 min 0,000 mm 0,0 UV-I 19 W/m -0,4 C 0,3 C 6,4 km/h (2 Bft)
19/02/2018 08:15 0,4 C 95 % 1019,4 hPa 0,0 mm 0,5 km/h (0 Bft) E-SE 107 0 min 0,000 mm 0,0 UV-I 17 W/m -0,3 C 0,4 C 3,2 km/h (1 Bft)
19/02/2018 08:10 0,5 C 95 % 1019,2 hPa 0,0 mm 1,3 km/h (1 Bft) E-SE 107 0 min 0,000 mm 0,0 UV-I 13 W/m -0,2 C 0,5 C 6,4 km/h (2 Bft)
19/02/2018 08:05 0,5 C 95 % 1019,2 hPa 0,0 mm 0,5 km/h (0 Bft) E-SE 122 0 min 0,000 mm 0,0 UV-I 9 W/m -0,2 C 0,5 C 1,6 km/h (1 Bft)
19/02/2018 08:00 0,4 C 95 % 1019,1 hPa 0,0 mm 0,1 km/h (0 Bft) E-SE 122 0 min 0,000 mm 0,0 UV-I 5 W/m -0,3 C 0,4 C 1,6 km/h (1 Bft)
19/02/2018 07:55 0,4 C 95 % 1019,1 hPa 0,0 mm 1,5 km/h (1 Bft) E-SE 122 0 min 0,000 mm 0,0 UV-I 2 W/m -0,3 C 0,4 C 4,8 km/h (1 Bft)
19/02/2018 07:50 0,6 C 95 % 1019,1 hPa 0,0 mm 0,7 km/h (0 Bft) SE 144 0 min 0,000 mm 0,0 UV-I 0 W/m -0,1 C 0,6 C 3,2 km/h (1 Bft)
19/02/2018 07:45 0,6 C 95 % 1019,1 hPa 0,0 mm 0,5 km/h (0 Bft) E-SE 103 0 min 0,000 mm 0,0 UV-I 0 W/m -0,1 C 0,6 C 3,2 km/h (1 Bft)
19/02/2018 07:40 0,7 C 95 % 1019,0 hPa 0,0 mm 0,0 km/h (0 Bft) E-SE 109 0 min 0,000 mm 0,0 UV-I 0 W/m -0,0 C 0,7 C 0,0 km/h (0 Bft)
19/02/2018 07:35 0,7 C 95 % 1019,1 hPa 0,0 mm 0,0 km/h (0 Bft) E-NE 69 0 min 0,000 mm 0,0 UV-I 0 W/m -0,0 C 0,7 C 0,0 km/h (0 Bft)
19/02/2018 07:30 0,7 C 95 % 1019,1 hPa 0,0 mm 0,0 km/h (0 Bft) E-NE 69 0 min 0,000 mm 0,0 UV-I 0 W/m -0,0 C 0,7 C 1,6 km/h (1 Bft)
19/02/2018 07:25 0,8 C 95 % 1019,0 hPa 0,0 mm 0,7 km/h (0 Bft) E-NE 68 0 min 0,000 mm 0,0 UV-I 0 W/m 0,1 C 0,8 C 3,2 km/h (1 Bft)
19/02/2018 07:20 0,9 C 95 % 1019,0 hPa 0,0 mm 0,0 km/h (0 Bft) E 97 0 min 0,000 mm 0,0 UV-I 0 W/m 0,2 C 0,9 C 0,0 km/h (0 Bft)
19/02/2018 07:15 0,9 C 95 % 1018,9 hPa 0,0 mm 0,0 km/h (0 Bft) E 97 0 min 0,000 mm 0,0 UV-I 0 W/m 0,2 C 0,9 C 0,0 km/h (0 Bft)
19/02/2018 07:10 0,9 C 95 % 1018,8 hPa 0,0 mm 0,0 km/h (0 Bft) N 0 0 min 0,000 mm 0,0 UV-I 0 W/m 0,2 C 0,9 C 0,0 km/h (0 Bft)
19/02/2018 07:05 0,9 C 95 % 1018,8 hPa 0,0 mm 0,0 km/h (0 Bft) E 97 0 min 0,000 mm 0,0 UV-I 0 W/m 0,2 C 0,9 C 0,0 km/h (0 Bft)
19/02/2018 07:00 0,9 C 95 % 1018,9 hPa 0,0 mm 0,0 km/h (0 Bft) E 97 0 min 0,000 mm 0,0 UV-I 0 W/m 0,2 C 0,9 C 1,6 km/h (1 Bft)
19/02/2018 06:55 0,9 C 95 % 1018,7 hPa 0,0 mm 0,7 km/h (0 Bft) E 97 0 min 0,000 mm 0,0 UV-I 0 W/m 0,2 C 0,9 C 3,2 km/h (1 Bft)
19/02/2018 06:50 1,1 C 95 % 1018,6 hPa 0,0 mm 1,0 km/h (0 Bft) SE 138 0 min 0,000 mm 0,0 UV-I 0 W/m 0,4 C 1,1 C 4,8 km/h (1 Bft)
19/02/2018 06:45 1,2 C 95 % 1018,7 hPa 0,0 mm 0,0 km/h (0 Bft) E-SE 104 0 min 0,000 mm 0,0 UV-I 0 W/m 0,5 C 1,2 C 0,0 km/h (0 Bft)
19/02/2018 06:40 1,2 C 95 % 1018,7 hPa 0,0 mm 0,0 km/h (0 Bft) E-NE 71 0 min 0,000 mm 0,0 UV-I 0 W/m 0,5 C 1,2 C 0,0 km/h (0 Bft)
19/02/2018 06:35 1,2 C 95 % 1018,7 hPa 0,0 mm 0,0 km/h (0 Bft) E-NE 71 0 min 0,000 mm 0,0 UV-I 0 W/m 0,5 C 1,2 C 0,0 km/h (0 Bft)
19/02/2018 06:30 1,2 C 95 % 1018,7 hPa 0,0 mm 0,0 km/h (0 Bft) E-NE 76 0 min 0,000 mm 0,0 UV-I 0 W/m 0,5 C 1,2 C 0,0 km/h (0 Bft)
19/02/2018 06:25 1,2 C 95 % 1018,7 hPa 0,0 mm 0,0 km/h (0 Bft) E-NE 76 0 min 0,000 mm 0,0 UV-I 0 W/m 0,5 C 1,2 C 0,0 km/h (0 Bft)
19/02/2018 06:20 1,3 C 95 % 1018,7 hPa 0,0 mm 0,0 km/h (0 Bft) E-NE 76 0 min 0,000 mm 0,0 UV-I 0 W/m 0,6 C 1,3 C 0,0 km/h (0 Bft)
19/02/2018 06:15 1,2 C 95 % 1018,7 hPa 0,0 mm 0,0 km/h (0 Bft) E-NE 76 0 min 0,000 mm 0,0 UV-I 0 W/m 0,5 C 1,2 C 0,0 km/h (0 Bft)
19/02/2018 06:10 1,2 C 95 % 1018,7 hPa 0,0 mm 0,0 km/h (0 Bft) E-NE 76 0 min 0,000 mm 0,0 UV-I 0 W/m 0,5 C 1,2 C 0,0 km/h (0 Bft)
19/02/2018 06:05 1,3 C 95 % 1018,7 hPa 0,0 mm 0,0 km/h (0 Bft) E-NE 76 0 min 0,000 mm 0,0 UV-I 0 W/m 0,6 C 1,3 C 0,0 km/h (0 Bft)
19/02/2018 06:00 1,3 C 95 % 1018,7 hPa 0,0 mm 0,0 km/h (0 Bft) NE 55 0 min 0,000 mm 0,0 UV-I 0 W/m 0,6 C 1,3 C 0,0 km/h (0 Bft)
19/02/2018 05:55 1,3 C 95 % 1018,7 hPa 0,0 mm 0,0 km/h (0 Bft) NE 55 0 min 0,000 mm 0,0 UV-I 0 W/m 0,6 C 1,3 C 0,0 km/h (0 Bft)
19/02/2018 05:50 1,3 C 95 % 1018,7 hPa 0,0 mm 0,0 km/h (0 Bft) E-NE 78 0 min 0,000 mm 0,0 UV-I 0 W/m 0,6 C 1,3 C 0,0 km/h (0 Bft)
19/02/2018 05:45 1,4 C 95 % 1018,8 hPa 0,0 mm 0,0 km/h (0 Bft) E-NE 66 0 min 0,000 mm 0,0 UV-I 0 W/m 0,7 C 1,4 C 0,0 km/h (0 Bft)
19/02/2018 05:40 1,4 C 95 % 1018,7 hPa 0,0 mm 0,0 km/h (0 Bft) E-NE 66 0 min 0,000 mm 0,0 UV-I 0 W/m 0,7 C 1,4 C 0,0 km/h (0 Bft)
19/02/2018 05:35 1,4 C 95 % 1018,7 hPa 0,0 mm 0,0 km/h (0 Bft) E 84 0 min 0,000 mm 0,0 UV-I 0 W/m 0,7 C 1,4 C 0,0 km/h (0 Bft)
19/02/2018 05:30 1,4 C 95 % 1018,7 hPa 0,0 mm 0,0 km/h (0 Bft) E 84 0 min 0,000 mm 0,0 UV-I 0 W/m 0,7 C 1,4 C 0,0 km/h (0 Bft)
19/02/2018 05:25 1,3 C 95 % 1018,7 hPa 0,0 mm 0,0 km/h (0 Bft) E 84 0 min 0,000 mm 0,0 UV-I 0 W/m 0,6 C 1,3 C 0,0 km/h (0 Bft)
19/02/2018 05:20 1,3 C 95 % 1018,6 hPa 0,0 mm 0,0 km/h (0 Bft) E 84 0 min 0,000 mm 0,0 UV-I 0 W/m 0,6 C 1,3 C 0,0 km/h (0 Bft)
19/02/2018 05:15 1,3 C 95 % 1018,7 hPa 0,0 mm 0,0 km/h (0 Bft) E 84 0 min 0,000 mm 0,0 UV-I 0 W/m 0,6 C 1,3 C 0,0 km/h (0 Bft)
19/02/2018 05:10 1,3 C 95 % 1018,6 hPa 0,0 mm 0,0 km/h (0 Bft) E 84 0 min 0,000 mm 0,0 UV-I 0 W/m 0,6 C 1,3 C 0,0 km/h (0 Bft)
19/02/2018 05:05 1,2 C 95 % 1018,6 hPa 0,0 mm 0,0 km/h (0 Bft) E 84 0 min 0,000 mm 0,0 UV-I 0 W/m 0,5 C 1,2 C 0,0 km/h (0 Bft)
19/02/2018 05:00 1,2 C 95 % 1018,8 hPa 0,0 mm 0,2 km/h (0 Bft) E-SE 102 0 min 0,000 mm 0,0 UV-I 0 W/m 0,5 C 1,2 C 3,2 km/h (1 Bft)
19/02/2018 04:55 1,2 C 95 % 1018,7 hPa 0,0 mm 0,6 km/h (0 Bft) E 91 0 min 0,000 mm 0,0 UV-I 0 W/m 0,5 C 1,2 C 3,2 km/h (1 Bft)
19/02/2018 04:50 1,2 C 95 % 1018,7 hPa 0,0 mm 0,0 km/h (0 Bft) SE 128 0 min 0,000 mm 0,0 UV-I 0 W/m 0,5 C 1,2 C 0,0 km/h (0 Bft)
19/02/2018 04:45 1,2 C 95 % 1018,9 hPa 0,0 mm 0,0 km/h (0 Bft) SE 128 0 min 0,000 mm 0,0 UV-I 0 W/m 0,5 C 1,2 C 0,0 km/h (0 Bft)
19/02/2018 04:40 1,3 C 95 % 1018,9 hPa 0,0 mm 0,0 km/h (0 Bft) SE 129 0 min 0,000 mm 0,0 UV-I 0 W/m 0,6 C 1,3 C 0,0 km/h (0 Bft)
19/02/2018 04:35 1,3 C 95 % 1018,9 hPa 0,0 mm 0,0 km/h (0 Bft) SE 141 0 min 0,000 mm 0,0 UV-I 0 W/m 0,6 C 1,3 C 0,0 km/h (0 Bft)
19/02/2018 04:30 1,3 C 95 % 1018,9 hPa 0,0 mm 0,0 km/h (0 Bft) SE 141 0 min 0,000 mm 0,0 UV-I 0 W/m 0,6 C 1,3 C 0,0 km/h (0 Bft)
19/02/2018 04:25 1,3 C 95 % 1018,9 hPa 0,0 mm 0,0 km/h (0 Bft) SE 138 0 min 0,000 mm 0,0 UV-I 0 W/m 0,6 C 1,3 C 0,0 km/h (0 Bft)
19/02/2018 04:20 1,3 C 95 % 1018,8 hPa 0,0 mm 0,0 km/h (0 Bft) SE 137 0 min 0,000 mm 0,0 UV-I 0 W/m 0,6 C 1,3 C 0,0 km/h (0 Bft)
19/02/2018 04:15 1,3 C 95 % 1018,8 hPa 0,0 mm 0,0 km/h (0 Bft) SE 138 0 min 0,000 mm 0,0 UV-I 0 W/m 0,6 C 1,3 C 0,0 km/h (0 Bft)
19/02/2018 04:10 1,2 C 95 % 1018,9 hPa 0,0 mm 0,0 km/h (0 Bft) SE 138 0 min 0,000 mm 0,0 UV-I 0 W/m 0,5 C 1,2 C 0,0 km/h (0 Bft)
19/02/2018 04:05 1,2 C 95 % 1018,9 hPa 0,0 mm 0,0 km/h (0 Bft) SE 139 0 min 0,000 mm 0,0 UV-I 0 W/m 0,5 C 1,2 C 0,0 km/h (0 Bft)
19/02/2018 04:00 1,1 C 95 % 1018,9 hPa 0,0 mm 0,0 km/h (0 Bft) SE 138 0 min 0,000 mm 0,0 UV-I 0 W/m 0,4 C 1,1 C 0,0 km/h (0 Bft)
19/02/2018 03:55 1,1 C 95 % 1018,9 hPa 0,0 mm 0,0 km/h (0 Bft) SE 139 0 min 0,000 mm 0,0 UV-I 0 W/m 0,4 C 1,1 C 0,0 km/h (0 Bft)
19/02/2018 03:50 1,0 C 95 % 1019,0 hPa 0,0 mm 0,1 km/h (0 Bft) SO 235 0 min 0,000 mm 0,0 UV-I 0 W/m 0,3 C 1,0 C 1,6 km/h (1 Bft)
19/02/2018 03:45 0,9 C 95 % 1019,0 hPa 0,0 mm 0,0 km/h (0 Bft) SO 235 0 min 0,000 mm 0,0 UV-I 0 W/m 0,2 C 0,9 C 0,0 km/h (0 Bft)
19/02/2018 03:40 0,8 C 94 % 1019,0 hPa 0,0 mm 0,0 km/h (0 Bft) SO 234 0 min 0,000 mm 0,0 UV-I 0 W/m -0,1 C 0,8 C 0,0 km/h (0 Bft)
19/02/2018 03:30 0,7 C 94 % 1019,0 hPa 0,0 mm 0,0 km/h (0 Bft) SO 235 0 min 0,000 mm 0,0 UV-I 0 W/m -0,2 C 0,7 C 0,0 km/h (0 Bft)
19/02/2018 03:25 0,7 C 94 % 1019,0 hPa 0,0 mm 0,0 km/h (0 Bft) SO 235 0 min 0,000 mm 0,0 UV-I 0 W/m -0,2 C 0,7 C 0,0 km/h (0 Bft)
19/02/2018 03:20 0,7 C 94 % 1019,2 hPa 0,0 mm 0,0 km/h (0 Bft) SO 234 0 min 0,000 mm 0,0 UV-I 0 W/m -0,2 C 0,7 C 0,0 km/h (0 Bft)
19/02/2018 03:15 0,7 C 95 % 1019,2 hPa 0,0 mm 0,0 km/h (0 Bft) SO 235 0 min 0,000 mm 0,0 UV-I 0 W/m -0,0 C 0,7 C 0,0 km/h (0 Bft)
19/02/2018 03:10 0,6 C 94 % 1019,2 hPa 0,0 mm 0,0 km/h (0 Bft) SO 235 0 min 0,000 mm 0,0 UV-I 0 W/m -0,3 C 0,6 C 0,0 km/h (0 Bft)
19/02/2018 03:05 0,6 C 95 % 1019,2 hPa 0,0 mm 0,0 km/h (0 Bft) SO 235 0 min 0,000 mm 0,0 UV-I 0 W/m -0,1 C 0,6 C 0,0 km/h (0 Bft)
19/02/2018 03:00 0,5 C 95 % 1019,2 hPa 0,0 mm 0,0 km/h (0 Bft) SO 235 0 min 0,000 mm 0,0 UV-I 0 W/m -0,2 C 0,5 C 0,0 km/h (0 Bft)
19/02/2018 02:55 0,4 C 94 % 1019,2 hPa 0,0 mm 0,0 km/h (0 Bft) SO 235 0 min 0,000 mm 0,0 UV-I 0 W/m -0,5 C 0,4 C 0,0 km/h (0 Bft)
19/02/2018 02:50 0,3 C 94 % 1019,2 hPa 0,0 mm 0,0 km/h (0 Bft) SO 235 0 min 0,000 mm 0,0 UV-I 0 W/m -0,5 C 0,3 C 0,0 km/h (0 Bft)
19/02/2018 02:45 0,2 C 94 % 1019,2 hPa 0,0 mm 0,0 km/h (0 Bft) SO 234 0 min 0,000 mm 0,0 UV-I 0 W/m -0,6 C 0,2 C 0,0 km/h (0 Bft)
19/02/2018 02:40 0,1 C 94 % 1019,3 hPa 0,0 mm 0,0 km/h (0 Bft) SO 235 0 min 0,000 mm 0,0 UV-I 0 W/m -0,7 C 0,1 C 0,0 km/h (0 Bft)
19/02/2018 02:35 0,0 C 94 % 1019,4 hPa 0,0 mm 0,0 km/h (0 Bft) SO 235 0 min 0,000 mm 0,0 UV-I 0 W/m -0,8 C 0,0 C 0,0 km/h (0 Bft)
19/02/2018 02:30 -0,1 C 94 % 1019,4 hPa 0,0 mm 0,0 km/h (0 Bft) SO 235 0 min 0,000 mm 0,0 UV-I 0 W/m -0,9 C -0,1 C 0,0 km/h (0 Bft)
19/02/2018 02:25 -0,2 C 94 % 1019,4 hPa 0,0 mm 0,0 km/h (0 Bft) SO 234 0 min 0,000 mm 0,0 UV-I 0 W/m -1,0 C -0,2 C 0,0 km/h (0 Bft)
19/02/2018 02:20 -0,2 C 94 % 1019,4 hPa 0,0 mm 0,0 km/h (0 Bft) SO 235 0 min 0,000 mm 0,0 UV-I 0 W/m -1,0 C -0,2 C 0,0 km/h (0 Bft)
19/02/2018 02:15 -0,2 C 94 % 1019,4 hPa 0,0 mm 0,0 km/h (0 Bft) SO 235 0 min 0,000 mm 0,0 UV-I 0 W/m -1,0 C -0,2 C 0,0 km/h (0 Bft)
19/02/2018 02:10 -0,1 C 94 % 1019,4 hPa 0,0 mm 0,0 km/h (0 Bft) SO 234 0 min 0,000 mm 0,0 UV-I 0 W/m -0,9 C -0,1 C 0,0 km/h (0 Bft)
19/02/2018 02:05 -0,1 C 94 % 1019,4 hPa 0,0 mm 0,0 km/h (0 Bft) SO 235 0 min 0,000 mm 0,0 UV-I 0 W/m -0,9 C -0,1 C 0,0 km/h (0 Bft)
19/02/2018 02:00 0,0 C 94 % 1019,5 hPa 0,0 mm 0,0 km/h (0 Bft) SO 235 0 min 0,000 mm 0,0 UV-I 0 W/m -0,8 C 0,0 C 0,0 km/h (0 Bft)
19/02/2018 01:55 0,1 C 94 % 1019,5 hPa 0,0 mm 0,0 km/h (0 Bft) SO 235 0 min 0,000 mm 0,0 UV-I 0 W/m -0,7 C 0,1 C 0,0 km/h (0 Bft)
19/02/2018 01:50 0,2 C 94 % 1019,5 hPa 0,0 mm 0,0 km/h (0 Bft) SO 234 0 min 0,000 mm 0,0 UV-I 0 W/m -0,6 C 0,2 C 0,0 km/h (0 Bft)
19/02/2018 01:45 0,3 C 94 % 1019,6 hPa 0,0 mm 0,0 km/h (0 Bft) SO 234 0 min 0,000 mm 0,0 UV-I 0 W/m -0,5 C 0,3 C 0,0 km/h (0 Bft)
19/02/2018 01:40 0,6 C 94 % 1019,6 hPa 0,0 mm 0,0 km/h (0 Bft) SO 235 0 min 0,000 mm 0,0 UV-I 0 W/m -0,3 C 0,6 C 0,0 km/h (0 Bft)
19/02/2018 01:35 1,0 C 94 % 1019,7 hPa 0,0 mm 0,0 km/h (0 Bft) SO 235 0 min 0,000 mm 0,0 UV-I 0 W/m 0,1 C 1,0 C 0,0 km/h (0 Bft)
19/02/2018 01:30 1,1 C 94 % 1019,8 hPa 0,0 mm 0,0 km/h (0 Bft) SO 234 0 min 0,000 mm 0,0 UV-I 0 W/m 0,2 C 1,1 C 0,0 km/h (0 Bft)
19/02/2018 01:25 1,2 C 94 % 1019,8 hPa 0,0 mm 0,0 km/h (0 Bft) SO 235 0 min 0,000 mm 0,0 UV-I 0 W/m 0,3 C 1,2 C 0,0 km/h (0 Bft)
19/02/2018 01:20 1,2 C 94 % 1019,8 hPa 0,0 mm 0,0 km/h (0 Bft) SO 235 0 min 0,000 mm 0,0 UV-I 0 W/m 0,3 C 1,2 C 0,0 km/h (0 Bft)
19/02/2018 01:15 1,1 C 94 % 1019,9 hPa 0,0 mm 0,0 km/h (0 Bft) SO 234 0 min 0,000 mm 0,0 UV-I 0 W/m 0,2 C 1,1 C 0,0 km/h (0 Bft)
19/02/2018 01:10 1,0 C 94 % 1019,9 hPa 0,0 mm 0,0 km/h (0 Bft) SO 234 0 min 0,000 mm 0,0 UV-I 0 W/m 0,1 C 1,0 C 0,0 km/h (0 Bft)
19/02/2018 01:05 1,1 C 94 % 1019,8 hPa 0,0 mm 0,0 km/h (0 Bft) SO 235 0 min 0,000 mm 0,0 UV-I 0 W/m 0,2 C 1,1 C 0,0 km/h (0 Bft)
19/02/2018 01:00 1,2 C 94 % 1019,9 hPa 0,0 mm 0,0 km/h (0 Bft) SO 235 0 min 0,000 mm 0,0 UV-I 0 W/m 0,3 C 1,2 C 0,0 km/h (0 Bft)
19/02/2018 00:55 1,2 C 94 % 1019,8 hPa 0,0 mm 0,0 km/h (0 Bft) SO 234 0 min 0,000 mm 0,0 UV-I 0 W/m 0,3 C 1,2 C 0,0 km/h (0 Bft)
19/02/2018 00:50 1,1 C 94 % 1019,9 hPa 0,0 mm 0,0 km/h (0 Bft) SO 234 0 min 0,000 mm 0,0 UV-I 0 W/m 0,2 C 1,1 C 0,0 km/h (0 Bft)
19/02/2018 00:45 1,2 C 94 % 1019,9 hPa 0,0 mm 0,0 km/h (0 Bft) SO 234 0 min 0,000 mm 0,0 UV-I 0 W/m 0,3 C 1,2 C 0,0 km/h (0 Bft)
19/02/2018 00:40 1,3 C 94 % 1019,9 hPa 0,0 mm 0,0 km/h (0 Bft) SO 235 0 min 0,000 mm 0,0 UV-I 0 W/m 0,4 C 1,3 C 0,0 km/h (0 Bft)
19/02/2018 00:35 1,4 C 94 % 1020,0 hPa 0,0 mm 0,0 km/h (0 Bft) SO 234 0 min 0,000 mm 0,0 UV-I 0 W/m 0,5 C 1,4 C 0,0 km/h (0 Bft)
19/02/2018 00:30 1,5 C 94 % 1020,0 hPa 0,0 mm 0,0 km/h (0 Bft) SO 235 0 min 0,000 mm 0,0 UV-I 0 W/m 0,6 C 1,5 C 0,0 km/h (0 Bft)
19/02/2018 00:25 1,6 C 94 % 1020,0 hPa 0,0 mm 0,0 km/h (0 Bft) SO 235 0 min 0,000 mm 0,0 UV-I 0 W/m 0,7 C 1,6 C 0,0 km/h (0 Bft)
19/02/2018 00:20 1,6 C 94 % 1019,9 hPa 0,0 mm 0,0 km/h (0 Bft) SO 234 0 min 0,000 mm 0,0 UV-I 0 W/m 0,7 C 1,6 C 0,0 km/h (0 Bft)
19/02/2018 00:15 1,6 C 94 % 1020,0 hPa 0,0 mm 0,0 km/h (0 Bft) SO 234 0 min 0,000 mm 0,0 UV-I 0 W/m 0,7 C 1,6 C 0,0 km/h (0 Bft)
19/02/2018 00:10 1,8 C 94 % 1019,9 hPa 0,0 mm 0,0 km/h (0 Bft) SO 234 0 min 0,000 mm 0,0 UV-I 0 W/m 0,9 C 1,8 C 0,0 km/h (0 Bft)
19/02/2018 00:05 1,9 C 94 % 1019,9 hPa 0,0 mm 0,0 km/h (0 Bft) SO 235 0 min 0,000 mm 0,0 UV-I 0 W/m 1,0 C 1,9 C 0,0 km/h (0 Bft)
19/02/2018 00:00 1,8 C 94 % 1020,0 hPa 0,0 mm 0,0 km/h (0 Bft) SO 234 0 min 0,000 mm 0,0 UV-I 0 W/m 0,9 C 1,8 C 0,0 km/h (0 Bft)
_ Min-Heure 02:25 03:40 06:50 - 09:05 - - - - - - 02:25 02:25 09:05
Minimum _ -0,2 C 94 % 1018,6 hPa - 0,0 km/h (0 Bft) - - - - - - -1,0 C -0,2 C 0,0 km/h (0 Bft)
_ Max-Heure 00:05 09:05 00:35 09:05 07:55 - - 09:05 09:05 09:05 09:00 00:05 00:05 08:20
Maximum _ 1,9 C 95 % 1020,0 hPa 0,0 mm 1,5 km/h
E-SE (1 Bft)
- - 0 min 0,000 mm 0,0 UV-I 54 W/m 1,0 C 1,9 C 6,4 km/h
E (2 Bft)
Moyenne _ 0,9 C 95 % 1019,2 hPa #0,0 mm 0,1 km/h (0 Bft) E - #0 min. #0,000 mm 0,0 UV-I 3 W/m 0,1 C 0,9 C 0,6 km/h (0 Bft)